This is the latest recevied weather packets stored in our database for station/object W1GK. If no packets are shown the sender has not sent any weather packets the latest 10 day(s).
| Time | Temp. | Humidity | Pressure | Rain* | Wind** | Luminosity | Snow |
|---|---|---|---|---|---|---|---|
| 1778023200 | 25.56° C | 17% | 1008.9 hPa | 0 mm | - | 563 W/m² | - |
| 1778022600 | 25° C | 17% | 1009 hPa | 0 mm | - | 599 W/m² | - |
| 1778022001 | 25° C | 18% | 1009.1 hPa | 0 mm | - | 633 W/m² | - |
| 1778021399 | 25° C | 18% | 1009.3 hPa | 0 mm | - | 650 W/m² | - |
| 1778020800 | 24.44° C | 19% | 1009.4 hPa | 0 mm | - | 679 W/m² | - |
| 1778020199 | 25° C | 19% | 1009.5 hPa | 0 mm | - | 95 W/m² | - |
| 1778019601 | 25° C | 18% | 1009.5 hPa | 0 mm | - | 786 W/m² | - |
| 1778019000 | 25° C | 19% | 1009.6 hPa | 0 mm | - | 165 W/m² | - |
| 1778018401 | 25° C | 20% | 1009.7 hPa | 0 mm | - | 821 W/m² | - |
| 1778017799 | 23.89° C | 20% | 1009.8 hPa | 0 mm | - | 838 W/m² | - |
| 1778017199 | 25° C | 19% | 1009.9 hPa | 0 mm | - | 860 W/m² | - |
| 1778016600 | 25° C | 20% | 1010.1 hPa | 0 mm | - | 870 W/m² | - |
| 1778015999 | 25° C | 20% | 1010.1 hPa | 0 mm | - | 853 W/m² | - |
| 1778015400 | 25.56° C | 19% | 1010.3 hPa | 0 mm | - | 462 W/m² | - |
| 1778014803 | 25.56° C | 18% | 1010.3 hPa | 0 mm | - | 188 W/m² | - |
| 1778014201 | 25° C | 20% | 1010.3 hPa | 0 mm | - | 163 W/m² | - |
| 1778013601 | 24.44° C | 21% | 1010.4 hPa | 0 mm | - | 536 W/m² | - |
| 1778013001 | 23.89° C | 20% | 1010.3 hPa | 0 mm | - | 842 W/m² | - |
| 1778012402 | 23.89° C | 21% | 1010.4 hPa | 0 mm | - | 960 W/m² | - |
| 1778011801 | 23.89° C | 21% | 1010.5 hPa | 0 mm | - | 974 W/m² | - |
| 1778011203 | 23.33° C | 21% | 1010.6 hPa | 0 mm | - | 1034 W/m² | - |
| 1778010599 | 22.78° C | 23% | 1010.7 hPa | 0 mm | - | 1206 W/m² | - |
| 1778010000 | 22.22° C | 23% | 1010.9 hPa | 0 mm | - | 410 W/m² | - |
| 1778009400 | 22.22° C | 25% | 1010.9 hPa | 0 mm | - | 394 W/m² | - |
| 1778008800 | 22.22° C | 24% | 1011 hPa | 0 mm | - | 364 W/m² | - |
* Rain latest hour (hover to see other rain measurements)
** Current wind speed in m/s (hover to see current wind gust speed)